Showing default

COSMOS 1275, 12504

Orbit data source: Space-Track

COSMOS 1275, 12504 is a payload satellite owned by VMF (CIS) in LEO that was launched on Thu, 04 Jun 1981 UTC via a KOSMOS 11K65M launch vehicle from the Plesetsk Missile And Space Complex (PKMTR). Payload-class satellites include a variety of spacecraft equipped with specific instruments for various scientific and technological missions. These include communications satellites like Starlink; space stations such as the ISS; scientific satellites like the Hubble; Earth observation satellites from companies like Planet Labs, Umbra, and HawkEye 360; GPS; miniature CubeSats for education and research; and military/defense satellites.

Loading next visibility...
Identifier
12504, 1981-053A
Orbit
LEO
Country
Flag of CISCIS
Related business
Manufacturer
Omsk Av. Zav.
Mission
Spacecraft
Bus & Motor
KAUR-1 11F627, Unknown motor
Mass
800 kg wet, 800 kg dry
Launch date (UTC)
1981-06-04 (45 years ago)
Launch vehicle
KOSMOS 11K65M
Launch site
Plesetsk Missile And Space Complex (PKMTR)
Object type
Payload
Rocket body
Debris
Shape & HBR
CYL + ANT, 8.5 m
Radar Cross Section
Large (>1 m²)

Expand to show TLE details & history
Last TLE update: 15 hours ago

TLE from 15 hours ago
0 COSMOS 1275
1 12504U 81053A   26253.34287296  .00000028  00000-0  13942-4 0  9991
2 12504  82.9620 202.5777 0038514 302.8456  56.8994 13.74538133270974
Epoch: 2026-09-10T08:13Z
TLE epoch observation values (Epoch: 2026-09-10T08:13:44.223Z)
Latitude
-0.00005°
Longitude
89.76148°
Altitude
970.813 km
Speed
7.374 km/s
True Right ascension
13h 30m 18s
True Declination
0° 00' 00"
Sunlit
Object was in daylight at epoch
Visualization orbit readout
Latitude
Unknown
Longitude
Unknown
Altitude
Unknown
Speed
Unknown
Apparent Right ascension
Unknown
Apparent Declination
Unknown
Sunlit
N/A
Visualization observer readout
Local Sidereal Time
15:20:02
Azimuth
Unknown
Elevation
Unknown
Doppler factor
Unknown
Orbital elements
Apogee altitude
1,008.813 km
Perigee altitude
952.131 km
Semi-major axis
7,358.609 km
Eccentricity
0.00385
Inclination
82.962°
RAAN
202.5777°
Arg. of periapsis
302.8456°
True anomaly
57.27009°
Mean anomaly
56.8994°
Eccentric anomaly
57.08465°
Mean motion
3.43835 °/min
Orbital period
104.7 mins
BSTAR
0.000013942
Loading maneuver chart data...
Computing Atmospheric mass density...
Loading historical data...
Loading historical data...
Loading historical data...
Loading historical data...
Loading historical data...
Loading historical data...
Loading historical data...

Documentation

Showing up to 5 results
|